Theta_e
315 317 318 319 318 317 321 320 322 322 322 321 325 334 337 340 341 342 340 340 343 341 344 343 340 345 348 355 356 358 358 358 358 358 359 360 361 359 359 358 354 356 358 355
313 313 315 316 315 317 319 321 321 321 320 319 321 326 327 324 339 341 340 342 340 344 342 345 349 342 345 353 356 357 357 356 357 358 358 359 359 360 360 360 357 354 357 359
313 313 314 314 316 316 316 317 318 319 320 324 323 321 322 323 337 341 341 339 341 340 339 340 348 350 345 348 353 355 356 356 354 355 357 357 358 358 358 359 358 357 356 355
313 314 317 313 313 317 317 326 326 326 326 326 327 329 329 333 322 337 339 337 338 335 335 339 349 350 356 348 347 349 353 353 353 351 353 354 355 356 356 358 358 358 359 358
316 315 314 316 324 327 326 325 327 327 327 325 326 331 336 334 334 337 335 332 332 335 339 344 344 351 355 356 357 358 360 359 359 353 351 350 351 353 355 356 357 358 358 359
319 321 321 326 327 326 326 323 326 326 326 326 325 337 335 331 331 332 332 333 333 339 342 343 345 350 360 362 361 359 359 358 358 362 362 365 357 350 351 353 354 356 357 358
323 326 325 325 325 324 328 326 324 324 324 324 324 325 327 329 330 331 334 335 342 342 344 345 345 345 350 355 354 350 349 351 353 352 358 363 356 361 366 357 354 353 357 359
326 329 330 324 325 328 324 323 323 323 323 323 323 324 326 328 331 330 333 338 339 340 342 344 343 342 344 345 347 345 344 347 350 348 353 364 360 358 364 368 364 359 358 359
325 326 322 322 323 323 322 321 322 322 322 323 323 323 324 327 326 330 334 337 340 341 341 342 342 341 343 344 346 349 350 350 350 350 355 363 363 369 368 370 369 361 349 337
323 322 323 322 322 322 323 322 322 322 323 324 323 323 324 326 326 329 333 336 341 340 340 340 338 337 337 338 341 346 348 349 349 349 354 354 357 360 364 372 369 349 339 334
322 322 322 324 324 324 324 323 323 324 324 324 324 323 326 327 326 325 335 341 340 338 336 335 336 336 337 339 340 341 342 346 348 347 341 337 342 345 354 358 360 350 342 336
327 324 325 325 323 323 324 324 324 324 324 323 324 324 326 329 327 333 337 335 334 333 333 333 334 334 335 339 343 345 349 347 341 337 333 328 328 327 334 347 351 346 340 340
324 323 325 325 324 323 324 325 324 324 323 324 324 323 323 328 333 333 332 330 331 332 332 332 332 332 337 338 343 345 345 336 330 329 326 325 326 328 328 332 335 334 336 338
323 324 330 327 327 324 322 325 327 325 324 323 324 322 324 327 332 331 330 330 330 328 330 332 332 334 335 337 338 335 332 329 328 326 323 322 321 322 326 326 320 317 329 333
327 329 330 327 322 322 323 326 325 325 324 324 323 322 325 331 329 327 328 328 329 329 329 330 330 332 333 334 333 331 329 327 326 323 320 318 317 317 315 315 314 313 315 317
328 329 329 325 323 321 323 323 324 324 324 326 326 325 327 328 326 325 325 326 324 322 323 325 329 330 331 331 331 329 327 325 323 321 320 319 319 319 318 318 318 317 316 316
332 330 328 327 326 324 323 323 322 324 326 326 326 327 326 325 324 322 321 321 321 321 322 323 327 330 329 330 329 327 326 325 324 323 322 321 321 320 319 318 317 316 315 317
330 330 329 326 327 329 327 325 327 327 327 325 327 326 324 324 322 322 322 321 321 321 321 321 322 323 324 327 326 325 326 326 325 324 322 322 321 319 316 316 316 317 316 315
331 331 331 330 328 328 327 326 325 326 325 324 324 324 323 323 323 321 320 320 320 320 319 320 321 321 321 321 321 320 320 319 320 320 319 318 317 317 317 317 317 315 315 316
333 331 329 328 327 327 326 324 324 324 323 322 322 321 319 318 318 318 318 318 318 319 319 318 318 319 319 319 319 319 318 318 317 317 316 316 316 315 316 316 316 316 315 315
331 327 327 327 326 324 323 323 322 320 320 320 317 318 318 317 318 318 318 318 318 319 319 319 319 319 319 318 317 316 316 316 316 315 315 315 316 316 316 316 316 316 314 313
328 326 325 325 325 324 323 322 320 319 318 318 318 317 318 318 317 316 317 317 316 318 319 320 320 319 319 319 318 318 318 318 317 317 316 314 314 313 313 313 313 312 312 312
326 325 325 325 324 323 322 322 322 323 322 322 319 317 315 314 315 314 312 314 315 316 315 315 316 316 315 315 314 314 314 314 314 314 314 314 313 312 313 313 313 313 313 313
324 324 324 323 322 323 323 324 324 318 315 314 313 313 313 313 313 313 313 314 315 315 315 314 314 314 314 315 316 317 316 316 316 316 316 317 317 317 316 316 316 316 316 317
324 323 324 326 326 326 326 323 318 312 311 310 310 311 312 313 313 313 313 314 315 315 315 316 317 317 317 318 318 319 318 318 318 318 317 315 315 315 316 316 315 312 311 313
326 326 327 328 328 328 325 323 323 323 317 312 309 310 311 312 313 314 315 316 317 317 317 318 318 318 318 318 317 317 316 317 316 315 313 312 312 314 314 313 313 312 311 310
327 328 328 328 327 327 325 325 324 324 317 312 311 312 314 315 316 316 317 318 318 319 319 319 319 319 319 319 318 315 315 316 316 313 313 313 313 312 313 313 313 313 312 311
Wind_Speed
5 6 5 4 9 8 4 7 3 5 6 10 6 2 9 7 13 19 16 16 18 19 3 7 14 21 28 31 32 34 34 32 36 38 38 37 36 37 38 38 41 41 40 40
4 8 6 6 9 9 4 3 5 5 4 8 10 8 5 6 8 9 13 14 13 15 5 5 8 25 26 28 32 34 33 35 34 35 35 37 38 37 37 38 40 40 44 43
4 4 6 6 5 5 5 3 4 7 9 16 14 11 7 8 6 11 11 7 11 11 8 9 12 20 28 31 28 31 33 33 33 34 35 37 40 37 38 39 39 42 41 42
4 3 0 8 6 6 4 10 10 7 15 14 16 17 8 9 8 8 8 9 6 7 6 11 15 18 16 26 24 22 24 22 24 27 32 33 31 36 37 36 38 40 39 42
2 4 6 8 6 7 3 4 13 12 16 17 26 9 9 15 4 7 6 5 5 14 24 25 22 24 26 24 19 15 11 11 17 26 33 35 34 34 36 32 34 38 39 39
0 2 5 1 11 13 8 4 12 15 13 14 18 7 5 14 11 9 8 10 13 19 23 24 20 23 26 22 21 19 15 11 8 5 8 20 31 38 37 36 37 35 38 39
1 4 4 4 12 11 2 5 14 12 11 10 5 4 13 15 9 8 11 15 21 24 21 23 23 23 22 18 17 14 14 16 17 17 16 17 19 24 32 33 34 33 31 32
3 3 7 10 6 3 5 8 11 13 10 11 9 11 12 14 6 7 8 14 19 18 20 24 24 23 19 18 15 16 17 18 19 22 19 20 23 27 28 30 29 26 26 20
6 5 8 15 5 9 7 10 12 11 9 7 8 11 10 8 9 4 6 9 15 15 16 20 20 21 20 20 19 17 15 16 17 20 21 17 17 19 21 26 23 18 18 16
4 4 6 14 16 17 15 12 11 10 9 6 8 9 14 6 7 2 4 8 13 16 14 14 20 21 20 21 19 18 17 16 18 17 15 11 8 8 10 17 16 16 18 20
9 15 15 17 15 19 20 20 18 19 19 16 11 10 10 8 6 6 8 12 14 13 14 19 22 22 21 20 18 19 20 17 12 9 8 4 2 4 7 10 12 23 24 29
13 20 17 21 23 23 23 23 21 19 18 14 12 6 9 11 4 3 9 10 9 7 8 10 13 12 14 16 14 14 14 9 5 3 4 5 6 12 7 7 9 18 24 30
14 14 19 23 24 26 26 25 27 23 19 15 13 5 9 6 5 11 12 9 6 4 7 10 12 12 12 10 8 6 3 2 3 5 5 5 7 9 20 26 25 23 23 25
17 18 16 14 10 13 18 24 21 19 17 15 11 6 11 9 7 10 6 8 6 10 7 8 10 7 3 5 8 13 14 14 15 14 13 12 14 14 14 17 18 22 25 24
16 17 20 12 7 10 14 6 2 5 8 8 11 9 8 6 6 8 8 7 16 10 7 7 6 8 8 15 20 22 19 19 19 18 20 22 23 23 22 22 22 22 27 24
19 19 17 7 7 7 7 8 5 4 4 8 10 14 10 12 11 19 14 10 13 7 9 9 14 14 16 23 25 22 23 24 24 22 24 28 24 28 19 22 21 18 19 19
11 11 11 7 6 5 4 3 3 3 5 3 7 9 17 19 17 11 11 16 18 19 15 12 13 19 24 22 20 20 20 22 27 24 20 22 29 28 18 20 19 18 13 17
8 10 10 5 6 7 2 5 5 5 4 8 13 17 18 16 12 14 13 19 22 20 16 16 15 16 18 18 18 21 24 23 27 26 23 22 24 24 23 23 22 16 12 11
11 8 9 10 4 10 12 12 13 16 17 16 14 14 16 16 16 14 16 18 16 14 14 13 15 18 21 21 27 25 26 24 23 22 21 24 24 21 19 21 21 16 17 21
10 13 15 17 20 17 13 18 19 18 18 20 20 21 19 18 18 20 20 18 15 11 14 16 18 21 22 23 26 28 29 31 31 30 30 29 26 26 27 26 22 22 21 18
9 10 11 13 14 17 19 18 20 18 18 23 20 20 18 19 19 17 15 12 14 14 13 15 18 21 23 23 23 24 24 23 22 20 19 19 19 17 18 17 16 17 16 14
8 9 11 15 18 18 21 23 23 23 20 21 17 24 18 16 15 12 12 16 12 15 15 15 15 17 17 18 19 19 17 16 16 17 17 19 21 20 18 16 14 12 10 7
12 13 14 14 17 19 19 18 15 17 15 11 12 16 16 15 15 15 7 14 16 18 21 23 23 24 23 23 23 23 22 22 22 21 19 17 14 12 11 9 7 5 3 3
14 15 15 16 20 18 8 8 11 16 17 17 17 17 19 19 18 17 17 16 18 19 19 18 18 19 20 20 19 18 17 16 16 15 14 12 9 8 9 12 11 11 8 5
14 14 15 13 11 6 10 15 16 18 19 18 18 18 18 17 21 17 17 16 16 16 17 16 17 18 17 15 14 13 15 13 10 9 9 11 10 6 5 8 9 8 7 5
10 8 8 10 10 10 14 14 10 9 12 15 16 18 19 19 18 17 16 14 12 11 11 11 9 7 8 8 8 7 8 9 9 9 8 8 7 8 8 5 4 5 4 3
10 7 7 9 6 7 13 13 13 12 14 15 15 15 16 15 13 11 9 8 5 4 4 3 3 2 2 3 3 6 8 6 4 6 2 5 3 2 1 2 6 8 9 9
Wind_Direction
265 256 317 314 336 352 333 250 185 257 287 283 296 271 280 159 172 165 155 153 140 254 352 178 191 199 194 191 192 190 190 193 200 204 209 212 216 221 226 227 228 230 237 240
302 298 324 306 311 295 266 290 296 292 300 277 297 295 279 331 172 154 145 160 162 138 138 100 161 188 195 190 189 187 189 197 201 203 207 211 215 219 223 226 229 229 233 238
265 302 349 337 217 278 283 339 317 40 322 337 325 313 303 291 199 177 167 151 156 139 125 110 93 188 186 191 189 188 193 199 200 204 208 213 217 215 219 222 224 228 230 233
253 20 113 239 252 241 228 53 36 26 9 340 324 307 313 317 253 187 145 124 125 109 86 72 93 97 127 189 182 183 196 200 207 210 212 216 216 218 221 220 221 225 226 229
206 210 279 304 28 330 340 83 36 26 5 352 340 326 13 352 28 113 102 103 119 103 100 90 83 87 89 90 109 129 147 194 221 226 226 226 224 221 225 223 223 225 228 228
330 247 252 306 320 309 285 157 22 15 3 353 353 17 321 337 358 44 57 58 69 73 72 71 71 76 77 76 69 49 31 24 12 352 271 248 241 236 234 229 230 228 229 229
258 244 274 316 327 311 246 281 337 341 330 333 331 200 294 300 359 23 47 48 71 64 59 52 50 59 62 53 38 19 359 346 337 330 318 294 278 267 251 233 231 231 229 229
343 298 275 14 13 85 254 301 313 313 303 294 286 303 323 326 351 14 41 50 53 60 54 43 30 26 25 24 5 355 344 334 333 327 315 304 292 287 259 238 228 225 215 202
198 236 305 320 208 287 278 283 291 284 291 286 297 295 303 309 311 67 70 57 57 59 47 34 27 18 2 346 343 338 331 325 324 323 311 299 290 278 256 232 217 196 173 140
319 239 263 279 294 295 290 274 265 275 265 294 295 299 289 274 288 268 90 64 49 38 34 18 360 349 342 333 322 320 318 317 317 313 296 277 281 284 257 230 204 161 142 138
247 280 282 275 278 291 292 285 279 274 270 280 272 288 263 267 260 276 100 78 62 36 8 351 347 339 330 321 313 299 296 298 304 301 281 264 95 322 261 237 212 182 171 161
281 289 294 286 288 285 283 280 269 260 257 247 249 232 274 261 284 173 103 85 62 30 354 338 331 314 308 309 311 293 278 267 266 243 227 200 141 87 82 143 170 186 175 168
283 291 289 285 277 279 283 276 265 252 237 225 234 229 279 280 235 110 97 87 76 31 341 328 326 317 322 323 329 312 248 130 96 125 136 119 108 105 101 98 116 126 141 143
295 296 298 283 274 292 292 288 272 242 222 209 221 264 280 223 123 111 120 106 140 63 355 343 324 325 358 94 97 98 96 98 94 89 89 93 82 70 91 101 94 86 113 123
291 305 295 279 287 300 328 333 68 198 186 189 197 236 242 123 120 91 84 78 60 53 23 23 351 19 99 111 103 102 100 101 103 99 95 80 75 70 76 81 85 86 101 101
295 296 301 270 282 299 347 5 41 110 150 171 181 198 149 101 78 52 51 73 77 40 41 55 58 60 77 91 101 103 106 105 101 100 101 97 89 87 73 87 88 92 105 113
289 309 310 314 317 314 328 321 298 286 161 154 180 123 121 107 100 129 110 94 87 69 54 58 59 77 88 90 96 98 95 96 100 99 95 102 106 104 103 103 102 107 111 110
295 258 274 240 299 319 288 221 231 204 176 190 128 126 120 126 142 125 108 106 92 79 72 85 86 96 103 111 109 111 113 115 112 114 116 109 109 111 118 116 110 104 89 80
334 333 29 47 29 72 55 60 69 76 80 111 114 103 104 100 94 98 93 82 77 70 69 94 104 104 103 110 112 104 98 94 94 97 100 110 109 111 114 118 115 93 86 112
10 43 59 66 62 65 78 74 80 84 91 92 97 92 84 80 88 86 88 80 75 71 76 82 89 88 90 95 100 102 107 109 106 105 106 104 102 103 105 107 104 101 100 108
31 52 65 65 65 73 79 82 87 78 83 90 85 89 88 85 88 90 77 76 71 91 90 87 89 90 89 93 95 94 96 98 97 100 106 116 122 125 125 127 126 117 113 118
45 67 81 88 89 78 83 87 87 88 83 91 96 94 101 107 113 100 87 91 89 93 97 95 97 96 92 95 98 96 95 100 102 105 107 100 94 96 98 99 100 100 103 108
67 73 81 88 93 98 95 94 96 104 110 100 101 106 99 97 108 100 74 90 93 94 97 99 103 103 101 99 98 98 96 95 93 95 93 82 79 88 92 93 100 111 124 135
90 86 93 92 98 97 93 85 87 99 104 112 116 119 119 107 102 106 106 103 104 104 104 103 101 102 100 97 92 87 84 85 88 92 89 77 82 98 100 95 91 82 73 76
81 95 91 86 81 83 110 110 100 96 97 100 105 111 116 120 116 118 116 114 116 116 112 111 111 116 118 115 109 105 98 92 99 101 100 86 73 58 107 108 82 58 37 9
108 97 87 80 70 97 113 113 101 100 105 103 106 114 121 125 127 128 127 126 125 124 122 121 119 117 107 106 97 82 89 98 113 123 108 82 72 99 102 101 67 24 346 343
120 110 96 85 73 101 124 120 108 125 141 131 130 133 134 137 140 146 146 146 150 159 163 177 215 210 195 217 187 134 120 135 153 165 87 37 27 60 176 258 262 270 265 260